Year,Month,Day,Hour,Minute,Value (Times are PST for temperature in C)
2017,05,12,00,00,9.10
2017,05,12,00,01,9.10
2017,05,12,00,02,9.10
2017,05,12,00,03,9.10
2017,05,12,00,04,9.00
2017,05,12,00,05,9.00
2017,05,12,00,06,9.00
2017,05,12,00,07,9.00
2017,05,12,00,08,9.00
2017,05,12,00,09,9.00
2017,05,12,00,10,8.90
2017,05,12,00,11,8.90
2017,05,12,00,12,8.90
2017,05,12,00,13,8.90
2017,05,12,00,14,8.90
2017,05,12,00,15,8.90
2017,05,12,00,16,8.90
2017,05,12,00,17,8.90
2017,05,12,00,18,8.90
2017,05,12,00,19,8.90
2017,05,12,00,20,8.90
2017,05,12,00,21,8.90
2017,05,12,00,22,8.90
2017,05,12,00,23,8.90
2017,05,12,00,24,8.90
2017,05,12,00,25,8.90
2017,05,12,00,26,8.90
2017,05,12,00,27,8.90
2017,05,12,00,28,8.90
2017,05,12,00,29,8.90
2017,05,12,00,30,8.90
2017,05,12,00,31,8.90
2017,05,12,00,32,8.90
2017,05,12,00,33,8.90
2017,05,12,00,34,8.90
2017,05,12,00,35,8.90
2017,05,12,00,36,8.90
2017,05,12,00,37,8.90
2017,05,12,00,38,8.90
2017,05,12,00,39,8.90
2017,05,12,00,40,8.90
2017,05,12,00,41,8.90
2017,05,12,00,42,8.80
2017,05,12,00,43,8.80
2017,05,12,00,44,8.80
2017,05,12,00,45,8.80
2017,05,12,00,46,8.80
2017,05,12,00,47,8.80
2017,05,12,00,48,8.80
2017,05,12,00,49,8.70
2017,05,12,00,50,8.70
2017,05,12,00,51,8.70
2017,05,12,00,52,8.70
2017,05,12,00,53,8.70
2017,05,12,00,54,8.70
2017,05,12,00,55,8.60
2017,05,12,00,56,8.60
2017,05,12,00,57,8.60
2017,05,12,00,58,8.60
2017,05,12,00,59,8.60
2017,05,12,01,00,8.60
2017,05,12,01,01,8.60
2017,05,12,01,02,8.60
2017,05,12,01,03,8.60
2017,05,12,01,04,8.50
2017,05,12,01,05,8.50
2017,05,12,01,06,8.50
2017,05,12,01,07,8.50
2017,05,12,01,08,8.50
2017,05,12,01,09,8.40
2017,05,12,01,10,8.40
2017,05,12,01,11,8.40
2017,05,12,01,12,8.40
2017,05,12,01,13,8.40
2017,05,12,01,14,8.40
2017,05,12,01,15,8.40
2017,05,12,01,16,8.40
2017,05,12,01,17,8.40
2017,05,12,01,18,8.40
2017,05,12,01,19,8.40
2017,05,12,01,20,8.40
2017,05,12,01,21,8.40
2017,05,12,01,22,8.40
2017,05,12,01,23,8.40
2017,05,12,01,24,8.40
2017,05,12,01,25,8.30
2017,05,12,01,26,8.30
2017,05,12,01,27,8.30
2017,05,12,01,28,8.30
2017,05,12,01,29,8.30
2017,05,12,01,30,8.30
2017,05,12,01,31,8.30
2017,05,12,01,32,8.30
2017,05,12,01,33,8.30
2017,05,12,01,34,8.30
2017,05,12,01,35,8.30
2017,05,12,01,36,8.30
2017,05,12,01,37,8.30
2017,05,12,01,38,8.30
2017,05,12,01,39,8.30
2017,05,12,01,40,8.30
2017,05,12,01,41,8.30
2017,05,12,01,42,8.30
2017,05,12,01,43,8.30
2017,05,12,01,44,8.30
2017,05,12,01,45,8.30
2017,05,12,01,46,8.30
2017,05,12,01,47,8.30
2017,05,12,01,48,8.30
2017,05,12,01,49,8.40
2017,05,12,01,50,8.40
2017,05,12,01,51,8.40
2017,05,12,01,52,8.40
2017,05,12,01,53,8.40
2017,05,12,01,54,8.40
2017,05,12,01,55,8.40
2017,05,12,01,56,8.40
2017,05,12,01,57,8.40
2017,05,12,01,58,8.40
2017,05,12,01,59,8.40
2017,05,12,02,00,8.40
2017,05,12,02,01,8.40
2017,05,12,02,02,8.40
2017,05,12,02,03,8.40
2017,05,12,02,04,8.40
2017,05,12,02,05,8.40
2017,05,12,02,06,8.40
2017,05,12,02,07,8.40
2017,05,12,02,08,8.40
2017,05,12,02,09,8.40
2017,05,12,02,10,8.40
2017,05,12,02,11,8.40
2017,05,12,02,12,8.40
2017,05,12,02,13,8.40
2017,05,12,02,14,8.40
2017,05,12,02,15,8.40
2017,05,12,02,16,8.40
2017,05,12,02,17,8.40
2017,05,12,02,18,8.40
2017,05,12,02,19,8.40
2017,05,12,02,20,8.40
2017,05,12,02,21,8.40
2017,05,12,02,22,8.40
2017,05,12,02,23,8.40
2017,05,12,02,24,8.40
2017,05,12,02,25,8.40
2017,05,12,02,26,8.40
2017,05,12,02,27,8.40
2017,05,12,02,28,8.40
2017,05,12,02,29,8.50
2017,05,12,02,30,8.40
2017,05,12,02,31,8.50
2017,05,12,02,32,8.50
2017,05,12,02,33,8.50
2017,05,12,02,34,8.50
2017,05,12,02,35,8.50
2017,05,12,02,36,8.50
2017,05,12,02,37,8.50
2017,05,12,02,38,8.50
2017,05,12,02,39,8.50
2017,05,12,02,40,8.50
2017,05,12,02,41,8.50
2017,05,12,02,42,8.50
2017,05,12,02,43,8.50
2017,05,12,02,44,8.50
2017,05,12,02,45,8.50
2017,05,12,02,46,8.50
2017,05,12,02,47,8.50
2017,05,12,02,48,8.50
2017,05,12,02,49,8.50
2017,05,12,02,50,8.50
2017,05,12,02,51,8.50
2017,05,12,02,52,8.50
2017,05,12,02,53,8.40
2017,05,12,02,54,8.40
2017,05,12,02,55,8.40
2017,05,12,02,56,8.40
2017,05,12,02,57,8.40
2017,05,12,02,58,8.40
2017,05,12,02,59,8.40
2017,05,12,03,00,8.40
2017,05,12,03,01,8.40
2017,05,12,03,02,8.40
2017,05,12,03,03,8.40
2017,05,12,03,04,8.40
2017,05,12,03,05,8.40
2017,05,12,03,06,8.40
2017,05,12,03,07,8.40
2017,05,12,03,08,8.40
2017,05,12,03,09,8.40
2017,05,12,03,10,8.40
2017,05,12,03,11,8.40
2017,05,12,03,12,8.40
2017,05,12,03,13,8.40
2017,05,12,03,14,8.30
2017,05,12,03,15,8.30
2017,05,12,03,16,8.30
2017,05,12,03,17,8.30
2017,05,12,03,18,8.30
2017,05,12,03,19,8.30
2017,05,12,03,20,8.30
2017,05,12,03,21,8.30
2017,05,12,03,22,8.30
2017,05,12,03,23,8.30
2017,05,12,03,24,8.30
2017,05,12,03,25,8.30
2017,05,12,03,26,8.30
2017,05,12,03,27,8.20
2017,05,12,03,28,8.20
2017,05,12,03,29,8.20
2017,05,12,03,30,8.20
2017,05,12,03,31,8.20
2017,05,12,03,32,8.20
2017,05,12,03,33,8.20
2017,05,12,03,34,8.20
2017,05,12,03,35,8.10
2017,05,12,03,36,8.10
2017,05,12,03,37,8.10
2017,05,12,03,38,8.10
2017,05,12,03,39,8.10
2017,05,12,03,40,8.10
2017,05,12,03,41,8.10
2017,05,12,03,42,8.10
2017,05,12,03,43,8.10
2017,05,12,03,44,8.10
2017,05,12,03,45,8.10
2017,05,12,03,46,8.10
2017,05,12,03,47,8.10
2017,05,12,03,48,8.10
2017,05,12,03,49,8.10
2017,05,12,03,50,8.10
2017,05,12,03,51,8.10
2017,05,12,03,52,8.10
2017,05,12,03,53,8.10
2017,05,12,03,54,8.10
2017,05,12,03,55,8.10
2017,05,12,03,56,8.10
2017,05,12,03,57,8.10
2017,05,12,03,58,8.10
2017,05,12,03,59,8.10
2017,05,12,04,00,8.10
2017,05,12,04,01,8.10
2017,05,12,04,02,8.10
2017,05,12,04,03,8.20
2017,05,12,05,04,8.10
2017,05,12,05,05,8.10
2017,05,12,05,06,8.10
2017,05,12,05,07,8.00
2017,05,12,05,08,8.00
2017,05,12,05,09,8.00
2017,05,12,05,10,8.00
2017,05,12,05,11,8.00
2017,05,12,05,12,8.00
2017,05,12,05,13,8.00
2017,05,12,05,14,7.90
2017,05,12,05,15,7.90
2017,05,12,05,16,7.90
2017,05,12,05,17,7.90
2017,05,12,05,18,7.90
2017,05,12,05,19,7.90
2017,05,12,05,20,7.90
2017,05,12,05,21,7.90
2017,05,12,05,22,7.90
2017,05,12,05,23,7.90
2017,05,12,05,24,7.90
2017,05,12,05,25,7.90
2017,05,12,05,26,7.90
2017,05,12,05,27,7.90
2017,05,12,05,28,7.90
2017,05,12,05,29,7.90
2017,05,12,05,30,7.90
2017,05,12,05,31,7.90
2017,05,12,05,32,7.90
2017,05,12,05,33,7.90
2017,05,12,05,34,7.90
2017,05,12,05,35,7.90
2017,05,12,05,36,7.90
2017,05,12,05,37,7.90
2017,05,12,05,38,7.90
2017,05,12,05,39,7.90
2017,05,12,05,40,7.90
2017,05,12,05,41,7.90
2017,05,12,05,42,7.90
2017,05,12,05,43,7.90
2017,05,12,05,44,7.90
2017,05,12,05,45,7.90
2017,05,12,05,46,7.90
2017,05,12,05,47,7.90
2017,05,12,05,48,7.90
2017,05,12,05,49,7.90
2017,05,12,05,50,7.90
2017,05,12,05,51,7.90
2017,05,12,05,52,7.90
2017,05,12,05,53,7.90
2017,05,12,05,54,7.90
2017,05,12,05,55,7.90
2017,05,12,05,56,7.90
2017,05,12,05,57,7.90
2017,05,12,05,58,7.90
2017,05,12,05,59,7.90
2017,05,12,06,00,7.90
2017,05,12,06,01,7.90
2017,05,12,06,02,7.90
2017,05,12,06,03,7.90
2017,05,12,06,04,7.90
2017,05,12,06,05,7.90
2017,05,12,06,06,7.90
2017,05,12,06,07,7.80
2017,05,12,06,08,7.80
2017,05,12,06,09,7.80
2017,05,12,06,10,7.80
2017,05,12,06,11,7.80
2017,05,12,06,12,7.80
2017,05,12,06,13,7.80
2017,05,12,06,14,7.80
2017,05,12,06,15,7.80
2017,05,12,06,16,7.70
2017,05,12,06,17,7.70
2017,05,12,06,18,7.70
2017,05,12,06,19,7.70
2017,05,12,06,20,7.70
2017,05,12,06,21,7.70
2017,05,12,06,22,7.70
2017,05,12,06,23,7.70
2017,05,12,06,24,7.70
2017,05,12,06,25,7.70
2017,05,12,06,26,7.70
2017,05,12,06,27,7.70
2017,05,12,06,28,7.70
2017,05,12,06,29,7.70
2017,05,12,06,30,7.70
2017,05,12,06,31,7.70
2017,05,12,06,32,7.70
2017,05,12,06,33,7.70
2017,05,12,06,34,7.70
2017,05,12,06,35,7.70
2017,05,12,06,36,7.70
2017,05,12,06,37,7.70
2017,05,12,06,38,7.70
2017,05,12,06,39,7.70
2017,05,12,06,40,7.70
2017,05,12,06,41,7.70
2017,05,12,06,42,7.70
2017,05,12,06,43,7.70
2017,05,12,06,44,7.70
2017,05,12,06,45,7.70
2017,05,12,06,46,7.70
2017,05,12,06,47,7.70
2017,05,12,06,48,7.70
2017,05,12,06,49,7.70
2017,05,12,06,50,7.70
2017,05,12,06,51,7.70
2017,05,12,06,52,7.70
2017,05,12,06,53,7.70
2017,05,12,06,54,7.70
2017,05,12,06,55,7.70
2017,05,12,06,56,7.70
2017,05,12,06,57,7.70
2017,05,12,06,58,7.70
2017,05,12,06,59,7.70
2017,05,12,07,00,7.70
2017,05,12,07,01,7.70
2017,05,12,07,02,7.80
2017,05,12,07,03,7.80
2017,05,12,07,04,7.80
2017,05,12,07,05,7.80
2017,05,12,07,06,7.80
2017,05,12,07,07,7.90
2017,05,12,07,08,7.90
2017,05,12,07,09,7.90
2017,05,12,07,10,7.90
2017,05,12,07,11,7.90
2017,05,12,07,12,8.00
2017,05,12,07,13,8.00
2017,05,12,07,14,8.00
2017,05,12,07,15,8.00
2017,05,12,07,16,8.10
2017,05,12,07,17,8.10
2017,05,12,07,18,8.10
2017,05,12,07,19,8.10
2017,05,12,07,20,8.20
2017,05,12,07,21,8.20
2017,05,12,07,22,8.20
2017,05,12,07,23,8.30
2017,05,12,07,24,8.30
2017,05,12,07,25,8.30
2017,05,12,07,26,8.40
2017,05,12,07,27,8.40
2017,05,12,07,28,8.40
2017,05,12,07,29,8.50
2017,05,12,07,30,8.50
2017,05,12,07,31,8.60
2017,05,12,07,32,8.60
2017,05,12,07,33,8.60
2017,05,12,07,34,8.70
2017,05,12,07,35,8.70
2017,05,12,07,36,8.70
2017,05,12,07,37,8.70
2017,05,12,07,38,8.70
2017,05,12,07,39,8.80
2017,05,12,07,40,8.80
2017,05,12,07,41,8.80
2017,05,12,07,42,8.80
2017,05,12,07,43,8.90
2017,05,12,07,44,8.90
2017,05,12,07,45,8.90
2017,05,12,07,46,9.00
2017,05,12,07,47,9.10
2017,05,12,07,48,9.10
2017,05,12,07,49,9.10
2017,05,12,07,50,9.20
2017,05,12,07,51,9.20
2017,05,12,07,52,9.20
2017,05,12,07,53,9.30
2017,05,12,07,54,9.30
2017,05,12,07,55,9.30
2017,05,12,07,56,9.30
2017,05,12,07,57,9.40
2017,05,12,07,58,9.40
2017,05,12,07,59,9.40
2017,05,12,08,00,9.40
2017,05,12,08,01,9.40
2017,05,12,08,02,9.40
2017,05,12,08,03,9.40
2017,05,12,08,04,9.40
2017,05,12,08,05,9.40
2017,05,12,08,06,9.50
2017,05,12,08,07,9.60
2017,05,12,08,08,9.60
2017,05,12,08,09,9.70
2017,05,12,08,10,9.70
2017,05,12,08,11,9.70
2017,05,12,08,12,9.80
2017,05,12,08,13,9.80
2017,05,12,08,14,10.00
2017,05,12,08,15,10.00
2017,05,12,08,16,10.10
2017,05,12,08,17,10.10
2017,05,12,08,18,10.20
2017,05,12,08,19,10.20
2017,05,12,08,20,10.20
2017,05,12,08,21,10.20
2017,05,12,08,22,10.20
2017,05,12,08,23,10.10
2017,05,12,08,24,10.10
2017,05,12,08,25,10.10
2017,05,12,08,26,10.10
2017,05,12,08,27,10.10
2017,05,12,08,28,10.10
2017,05,12,08,29,10.10
2017,05,12,08,30,10.10
2017,05,12,08,31,10.10
2017,05,12,08,32,10.10
2017,05,12,08,33,10.00
2017,05,12,08,34,10.00
2017,05,12,08,35,10.10
2017,05,12,08,36,10.10
2017,05,12,08,37,10.10
2017,05,12,08,38,10.10
2017,05,12,08,39,10.10
2017,05,12,08,40,10.20
2017,05,12,08,41,10.20
2017,05,12,08,42,10.20
2017,05,12,08,43,10.30
2017,05,12,08,44,10.30
2017,05,12,08,45,10.40
2017,05,12,08,46,10.40
2017,05,12,08,47,10.40
2017,05,12,08,48,10.40
2017,05,12,08,49,10.40
2017,05,12,08,50,10.40
2017,05,12,08,51,10.40
2017,05,12,08,52,10.40
2017,05,12,08,53,10.40
2017,05,12,08,54,10.30
2017,05,12,08,55,10.30
2017,05,12,08,56,10.30
2017,05,12,08,57,10.30
2017,05,12,08,58,10.20
2017,05,12,08,59,10.20
2017,05,12,09,00,10.20
2017,05,12,09,01,10.20
2017,05,12,09,02,10.20
2017,05,12,09,03,10.20
2017,05,12,09,04,10.30
2017,05,12,09,05,10.30
2017,05,12,09,06,10.30
2017,05,12,09,07,10.40
2017,05,12,09,08,10.40
2017,05,12,09,09,10.40
2017,05,12,09,10,10.40
2017,05,12,09,11,10.40
2017,05,12,09,12,10.30
2017,05,12,09,13,10.30
2017,05,12,09,14,10.30
2017,05,12,09,15,10.30
2017,05,12,09,16,10.40
2017,05,12,09,17,10.50
2017,05,12,09,18,10.60
2017,05,12,09,19,10.60
2017,05,12,09,20,10.60
2017,05,12,09,21,10.60
2017,05,12,09,22,10.60
2017,05,12,09,23,10.60
2017,05,12,09,24,10.50
2017,05,12,09,25,10.50
2017,05,12,09,26,10.40
2017,05,12,09,27,10.30
2017,05,12,09,28,10.30
2017,05,12,09,29,10.20
2017,05,12,09,30,10.20
2017,05,12,09,31,10.30
2017,05,12,09,32,10.30
2017,05,12,09,33,10.40
2017,05,12,09,34,10.40
2017,05,12,09,35,10.50
2017,05,12,09,36,10.60
2017,05,12,09,37,10.70
2017,05,12,09,38,10.80
2017,05,12,09,39,10.90
2017,05,12,09,40,11.00
2017,05,12,09,41,11.00
2017,05,12,09,42,11.10
2017,05,12,09,43,11.20
2017,05,12,09,44,11.30
2017,05,12,09,45,11.40
2017,05,12,09,46,11.50
2017,05,12,09,47,11.50
2017,05,12,09,48,11.60
2017,05,12,09,49,11.50
2017,05,12,09,50,11.50
2017,05,12,09,51,11.40
2017,05,12,09,52,11.40
2017,05,12,09,53,11.30
2017,05,12,09,54,11.30
2017,05,12,09,55,11.30
2017,05,12,09,56,11.20
2017,05,12,09,57,11.30
2017,05,12,09,58,11.30
2017,05,12,09,59,11.30
2017,05,12,10,00,11.30
2017,05,12,10,01,11.30
2017,05,12,10,02,11.30
2017,05,12,10,03,11.30
2017,05,12,10,04,11.40
2017,05,12,10,05,11.50
2017,05,12,10,06,11.50
2017,05,12,10,07,11.60
2017,05,12,10,08,11.70
2017,05,12,10,09,11.80
2017,05,12,10,10,11.80
2017,05,12,10,11,11.80
2017,05,12,10,12,11.80
2017,05,12,10,13,11.70
2017,05,12,10,14,11.60
2017,05,12,10,15,11.60
2017,05,12,10,16,11.60
2017,05,12,10,17,11.60
2017,05,12,10,18,11.70
2017,05,12,10,19,11.80
2017,05,12,10,20,11.80
2017,05,12,10,21,11.80
2017,05,12,10,22,11.80
2017,05,12,10,23,11.80
2017,05,12,10,24,11.80
2017,05,12,10,25,11.80
2017,05,12,10,26,11.90
2017,05,12,10,27,12.00
2017,05,12,10,28,12.10
2017,05,12,10,29,12.20
2017,05,12,10,30,12.30
2017,05,12,10,31,12.30
2017,05,12,10,32,12.40
2017,05,12,10,33,12.40
2017,05,12,10,34,12.40
2017,05,12,10,35,12.30
2017,05,12,10,36,12.20
2017,05,12,10,37,12.20
2017,05,12,10,38,12.10
2017,05,12,10,39,12.10
2017,05,12,10,40,12.10
2017,05,12,10,41,12.10
2017,05,12,10,42,12.10
2017,05,12,10,43,12.10
2017,05,12,10,44,12.10
2017,05,12,10,45,12.00
2017,05,12,10,46,12.00
2017,05,12,10,47,11.90
2017,05,12,10,48,11.90
2017,05,12,10,49,11.90
2017,05,12,10,50,11.90
2017,05,12,10,51,11.90
2017,05,12,10,52,12.00
2017,05,12,10,53,12.00
2017,05,12,10,54,11.90
2017,05,12,10,55,11.90
2017,05,12,10,56,11.90
2017,05,12,10,57,11.80
2017,05,12,10,58,11.70
2017,05,12,10,59,11.70
2017,05,12,11,00,11.70
2017,05,12,11,01,11.80
2017,05,12,11,02,11.80
2017,05,12,11,03,11.90
2017,05,12,11,04,11.90
2017,05,12,11,05,12.00
2017,05,12,11,06,12.00
2017,05,12,11,07,12.10
2017,05,12,11,08,12.10
2017,05,12,11,09,12.20
2017,05,12,11,10,12.20
2017,05,12,11,11,12.30
2017,05,12,11,12,12.40
2017,05,12,11,13,12.40
2017,05,12,11,14,12.40
2017,05,12,11,15,12.40
2017,05,12,11,16,12.40
2017,05,12,11,17,12.30
2017,05,12,11,18,12.30
2017,05,12,11,19,12.30
2017,05,12,11,20,12.20
2017,05,12,11,21,12.20
2017,05,12,11,22,12.20
2017,05,12,11,23,12.30
2017,05,12,11,24,12.30
2017,05,12,11,25,12.40
2017,05,12,11,26,12.40
2017,05,12,11,27,12.40
2017,05,12,11,28,12.40
2017,05,12,11,29,12.40
2017,05,12,11,30,12.50
2017,05,12,11,31,12.60
2017,05,12,11,32,12.70
2017,05,12,11,33,12.80
2017,05,12,11,34,12.80
2017,05,12,11,35,12.80
2017,05,12,11,36,12.80
2017,05,12,11,37,12.90
2017,05,12,11,38,12.90
2017,05,12,11,39,13.00
2017,05,12,11,40,13.10
2017,05,12,11,41,13.20
2017,05,12,11,42,13.30
2017,05,12,11,43,13.30
2017,05,12,11,44,13.20
2017,05,12,11,45,13.20
2017,05,12,11,46,13.20
2017,05,12,11,47,13.10
2017,05,12,11,48,13.10
2017,05,12,11,49,13.10
2017,05,12,11,50,13.10
2017,05,12,11,51,13.10
2017,05,12,11,52,13.10
2017,05,12,11,53,13.20
2017,05,12,11,54,13.30
2017,05,12,11,55,13.40
2017,05,12,11,56,13.50
2017,05,12,11,57,13.60
2017,05,12,11,58,13.70
2017,05,12,11,59,13.70
2017,05,12,12,00,13.70
2017,05,12,12,01,13.70
2017,05,12,12,02,13.70
2017,05,12,12,03,13.80
2017,05,12,12,04,13.90
2017,05,12,12,05,14.00
2017,05,12,12,06,14.00
2017,05,12,12,07,14.00
2017,05,12,12,08,13.90
2017,05,12,12,09,13.90
2017,05,12,12,10,13.80
2017,05,12,12,11,13.70
2017,05,12,12,12,13.60
2017,05,12,12,13,13.50
2017,05,12,12,14,13.50
2017,05,12,12,15,13.40
2017,05,12,12,16,13.30
2017,05,12,12,17,13.20
2017,05,12,12,18,13.20
2017,05,12,12,19,13.20
2017,05,12,12,20,13.20
2017,05,12,12,21,13.20
2017,05,12,12,22,13.20
2017,05,12,12,23,13.30
2017,05,12,12,24,13.30
2017,05,12,12,25,13.20
2017,05,12,12,26,13.30
2017,05,12,12,27,13.30
2017,05,12,12,28,13.30
2017,05,12,12,29,13.10
2017,05,12,12,30,13.00
2017,05,12,12,31,12.90
2017,05,12,12,32,12.80
2017,05,12,12,33,12.80
2017,05,12,12,34,12.80
2017,05,12,12,35,12.70
2017,05,12,12,36,12.60
2017,05,12,12,37,12.50
2017,05,12,12,38,12.40
2017,05,12,12,39,12.30
2017,05,12,12,40,12.30
2017,05,12,12,41,12.20
2017,05,12,12,42,12.20
2017,05,12,12,43,12.20
2017,05,12,12,44,12.20
2017,05,12,12,45,12.20
2017,05,12,12,46,12.20
2017,05,12,12,47,12.20
2017,05,12,12,48,12.30
2017,05,12,12,49,12.30
2017,05,12,12,50,12.30
2017,05,12,12,51,12.30
2017,05,12,12,52,12.40
2017,05,12,12,53,12.40
2017,05,12,12,54,12.50
2017,05,12,12,55,12.60
2017,05,12,12,56,12.60
2017,05,12,12,57,12.60
2017,05,12,12,58,12.70
2017,05,12,12,59,12.70
2017,05,12,13,00,12.80
2017,05,12,13,01,12.80
2017,05,12,13,02,12.80
2017,05,12,13,03,12.80
2017,05,12,13,04,12.90
2017,05,12,13,05,12.90
2017,05,12,13,06,13.00
2017,05,12,13,07,13.10
2017,05,12,13,08,13.10
2017,05,12,13,09,13.20
2017,05,12,13,10,13.20
2017,05,12,13,11,13.20
2017,05,12,13,12,13.20
2017,05,12,13,13,13.30
2017,05,12,13,14,13.30
2017,05,12,13,15,13.20
2017,05,12,13,16,13.10
2017,05,12,13,17,13.10
2017,05,12,13,18,13.00
2017,05,12,13,19,12.90
2017,05,12,13,20,12.90
2017,05,12,13,21,12.80
2017,05,12,13,22,12.80
2017,05,12,13,23,12.70
2017,05,12,13,24,12.70
2017,05,12,13,25,12.70
2017,05,12,13,26,12.70
2017,05,12,13,27,12.70
2017,05,12,13,28,12.70
2017,05,12,13,29,12.70
2017,05,12,13,30,12.70
2017,05,12,13,31,12.70
2017,05,12,13,32,12.70
2017,05,12,13,33,12.60
2017,05,12,13,34,12.60
2017,05,12,13,35,12.60
2017,05,12,13,36,12.70
2017,05,12,13,37,12.70
2017,05,12,13,38,12.70
2017,05,12,13,39,12.60
2017,05,12,13,40,12.50
2017,05,12,13,41,12.50
2017,05,12,13,42,12.40
2017,05,12,13,43,12.40
2017,05,12,13,44,12.40
2017,05,12,13,45,12.30
2017,05,12,13,46,12.40
2017,05,12,13,47,12.40
2017,05,12,13,48,12.30
2017,05,12,13,49,12.30
2017,05,12,13,50,12.20
2017,05,12,13,51,12.20
2017,05,12,13,52,12.10
2017,05,12,13,53,12.00
2017,05,12,13,54,11.90
2017,05,12,13,55,11.90
2017,05,12,13,56,11.80
2017,05,12,13,57,11.80
2017,05,12,13,58,11.80
2017,05,12,13,59,11.80
2017,05,12,14,00,11.80
2017,05,12,14,01,11.80
2017,05,12,14,02,11.90
2017,05,12,14,03,11.90
2017,05,12,14,04,12.00
2017,05,12,14,05,12.10
2017,05,12,14,06,12.10
2017,05,12,14,07,12.10
2017,05,12,14,08,12.20
2017,05,12,14,09,12.10
2017,05,12,14,10,12.10
2017,05,12,14,11,12.10
2017,05,12,14,12,12.10
2017,05,12,14,13,12.20
2017,05,12,14,14,12.30
2017,05,12,14,15,12.30
2017,05,12,14,16,12.40
2017,05,12,14,17,12.40
2017,05,12,14,18,12.40
2017,05,12,14,19,12.40
2017,05,12,14,20,12.40
2017,05,12,14,21,12.50
2017,05,12,14,22,12.60
2017,05,12,14,23,12.70
2017,05,12,14,24,12.80
2017,05,12,14,25,12.80
2017,05,12,14,26,12.90
2017,05,12,14,27,12.90
2017,05,12,14,28,12.90
2017,05,12,14,29,12.90
2017,05,12,14,30,12.80
2017,05,12,14,31,12.80
2017,05,12,14,32,12.80
2017,05,12,14,33,12.80
2017,05,12,14,34,12.90
2017,05,12,14,35,12.90
2017,05,12,14,36,12.90
2017,05,12,14,37,12.90
2017,05,12,14,38,12.90
2017,05,12,14,39,12.90
2017,05,12,14,40,13.00
2017,05,12,14,41,13.00
2017,05,12,14,42,13.10
2017,05,12,14,43,13.10
2017,05,12,14,44,13.10
2017,05,12,14,45,13.10
2017,05,12,14,46,13.10
2017,05,12,14,47,13.00
2017,05,12,14,48,12.90
2017,05,12,14,49,12.80
2017,05,12,14,50,12.80
2017,05,12,14,51,12.80
2017,05,12,14,52,12.80
2017,05,12,14,53,12.70
2017,05,12,14,54,12.70
2017,05,12,14,55,12.70
2017,05,12,14,56,12.70
2017,05,12,14,57,12.70
2017,05,12,14,58,12.80
2017,05,12,14,59,12.80
2017,05,12,15,00,12.80
2017,05,12,15,01,12.80
2017,05,12,15,02,12.80
2017,05,12,15,03,12.80
2017,05,12,15,04,12.80
2017,05,12,15,05,12.80
2017,05,12,15,06,12.80
2017,05,12,15,07,12.90
2017,05,12,15,08,12.90
2017,05,12,15,09,12.90
2017,05,12,15,10,13.00
2017,05,12,15,11,13.00
2017,05,12,15,12,13.00
2017,05,12,15,13,12.90
2017,05,12,15,14,12.90
2017,05,12,15,15,12.90
2017,05,12,15,16,12.90
2017,05,12,15,17,12.90
2017,05,12,15,18,12.90
2017,05,12,15,19,12.90
2017,05,12,15,20,13.00
2017,05,12,15,21,13.00
2017,05,12,15,22,13.20
2017,05,12,15,23,13.30
2017,05,12,15,24,13.40
2017,05,12,15,25,13.50
2017,05,12,15,26,13.60
2017,05,12,15,27,13.70
2017,05,12,15,28,13.70
2017,05,12,15,29,13.60
2017,05,12,15,30,13.60
2017,05,12,15,31,13.60
2017,05,12,15,32,13.70
2017,05,12,15,33,13.70
2017,05,12,15,34,13.80
2017,05,12,15,35,13.90
2017,05,12,15,36,14.00
2017,05,12,15,37,14.10
2017,05,12,15,38,14.20
2017,05,12,15,39,14.40
2017,05,12,15,40,14.40
2017,05,12,15,41,14.50
2017,05,12,15,42,14.60
2017,05,12,15,43,14.60
2017,05,12,15,44,14.70
2017,05,12,15,45,14.60
2017,05,12,15,46,14.60
2017,05,12,15,47,14.60
2017,05,12,15,48,14.60
2017,05,12,15,49,14.60
2017,05,12,15,50,14.60
2017,05,12,15,51,14.60
2017,05,12,15,52,14.50
2017,05,12,15,53,14.40
2017,05,12,15,54,14.40
2017,05,12,15,55,14.30
2017,05,12,15,56,14.30
2017,05,12,15,57,14.30
2017,05,12,15,58,14.40
2017,05,12,15,59,14.50
2017,05,12,16,00,14.50
2017,05,12,16,01,14.50
2017,05,12,16,02,14.50
2017,05,12,16,03,14.40
2017,05,12,16,04,14.30
2017,05,12,16,05,14.30
2017,05,12,16,06,14.30
2017,05,12,16,07,14.20
2017,05,12,16,08,14.20
2017,05,12,16,09,14.20
2017,05,12,16,10,14.40
2017,05,12,16,11,14.60
2017,05,12,16,12,14.70
2017,05,12,16,13,14.90
2017,05,12,16,14,15.10
2017,05,12,16,15,15.20
2017,05,12,16,16,15.20
2017,05,12,16,17,15.30
2017,05,12,16,18,15.30
2017,05,12,16,19,15.40
2017,05,12,16,20,15.50
2017,05,12,16,21,15.50
2017,05,12,16,22,15.60
2017,05,12,16,23,15.60
2017,05,12,16,24,15.70
2017,05,12,16,25,15.70
2017,05,12,16,26,15.70
2017,05,12,16,27,15.80
2017,05,12,16,28,15.80
2017,05,12,16,29,15.70
2017,05,12,16,30,15.70
2017,05,12,16,31,15.70
2017,05,12,16,32,15.70
2017,05,12,16,33,15.60
2017,05,12,16,34,15.50
2017,05,12,16,35,15.40
2017,05,12,16,36,15.20
2017,05,12,16,37,15.00
2017,05,12,16,38,14.90
2017,05,12,16,39,14.80
2017,05,12,16,40,14.70
2017,05,12,16,41,14.70
2017,05,12,16,42,14.70
2017,05,12,16,43,14.60
2017,05,12,16,44,14.60
2017,05,12,16,45,14.50
2017,05,12,16,46,14.50
2017,05,12,16,47,14.40
2017,05,12,16,48,14.40
2017,05,12,16,49,14.30
2017,05,12,16,50,14.30
2017,05,12,16,51,14.20
2017,05,12,16,52,14.00
2017,05,12,16,53,13.90
2017,05,12,16,54,13.80
2017,05,12,16,55,13.70
2017,05,12,16,56,13.60
2017,05,12,16,57,13.60
2017,05,12,16,58,13.70
2017,05,12,16,59,13.70
2017,05,12,17,00,13.70
2017,05,12,17,01,13.70
2017,05,12,17,02,13.70
2017,05,12,17,03,13.80
2017,05,12,17,04,13.80
2017,05,12,17,05,13.80
2017,05,12,17,06,13.70
2017,05,12,17,07,13.60
2017,05,12,17,08,13.50
2017,05,12,17,09,13.50
2017,05,12,17,10,13.50
2017,05,12,17,11,13.60
2017,05,12,17,12,13.70
2017,05,12,17,13,13.70
2017,05,12,17,14,13.80
2017,05,12,17,15,13.80
2017,05,12,17,16,13.90
2017,05,12,17,17,13.90
2017,05,12,17,18,14.00
2017,05,12,17,19,14.00
2017,05,12,17,20,14.00
2017,05,12,17,21,14.00
2017,05,12,17,22,14.00
2017,05,12,17,23,13.90
2017,05,12,17,24,13.80
2017,05,12,17,25,13.80
2017,05,12,17,26,13.70
2017,05,12,17,27,13.70
2017,05,12,17,28,13.60
2017,05,12,17,29,13.60
2017,05,12,17,30,13.50
2017,05,12,17,31,13.40
2017,05,12,17,32,13.30
2017,05,12,17,33,13.30
2017,05,12,17,34,13.30
2017,05,12,17,35,13.20
2017,05,12,17,36,13.20
2017,05,12,17,37,13.20
2017,05,12,17,38,13.30
2017,05,12,17,39,13.30
2017,05,12,17,40,13.40
2017,05,12,17,41,13.50
2017,05,12,17,42,13.50
2017,05,12,17,43,13.50
2017,05,12,17,44,13.60
2017,05,12,17,45,13.60
2017,05,12,17,46,13.70
2017,05,12,17,47,13.70
2017,05,12,17,48,13.80
2017,05,12,17,49,13.80
2017,05,12,17,50,13.80
2017,05,12,17,51,13.80
2017,05,12,17,52,13.80
2017,05,12,17,53,13.80
2017,05,12,17,54,13.70
2017,05,12,17,55,13.70
2017,05,12,17,56,13.70
2017,05,12,17,57,13.70
2017,05,12,17,58,13.70
2017,05,12,17,59,13.70
2017,05,12,18,00,13.70
2017,05,12,18,01,13.70
2017,05,12,18,02,13.70
2017,05,12,18,03,13.70
2017,05,12,18,04,13.60
2017,05,12,18,05,13.60
2017,05,12,18,06,13.60
2017,05,12,18,07,13.70
2017,05,12,18,08,13.70
2017,05,12,18,09,13.80
2017,05,12,18,10,13.80
2017,05,12,18,11,13.80
2017,05,12,18,12,13.90
2017,05,12,18,13,13.90
2017,05,12,18,14,14.00
2017,05,12,18,15,14.00
2017,05,12,18,16,14.00
2017,05,12,18,17,14.00
2017,05,12,18,18,13.90
2017,05,12,18,19,13.90
2017,05,12,18,20,13.90
2017,05,12,18,21,14.00
2017,05,12,18,22,14.00
2017,05,12,18,23,14.00
2017,05,12,18,24,14.00
2017,05,12,18,25,14.10
2017,05,12,18,26,14.10
2017,05,12,18,27,14.10
2017,05,12,18,28,14.00
2017,05,12,18,29,14.00
2017,05,12,18,30,13.90
2017,05,12,18,31,13.90
2017,05,12,18,32,13.90
2017,05,12,18,33,13.90
2017,05,12,18,34,13.80
2017,05,12,18,35,13.70
2017,05,12,18,36,13.60
2017,05,12,18,37,13.50
2017,05,12,18,38,13.40